TimeCST,TemperatureF,Dew PointF,Humidity,Sea Level PressureIn,VisibilityMPH,Wind Direction,Wind SpeedMPH,Gust SpeedMPH,PrecipitationIn,Events,Conditions,WindDirDegrees,DateUTC
12:15 AM,37.4,14.9,40,29.95,10.0,South,18.4,-,N/A,,Clear,170,2012-12-13 06:15:00
12:35 AM,37.4,14.9,40,29.95,10.0,South,19.6,26.5,N/A,,Clear,180,2012-12-13 06:35:00
12:55 AM,37.4,14.7,40,29.94,10.0,South,19.6,25.3,N/A,,Clear,170,2012-12-13 06:55:00
1:15 AM,37.2,14.9,40,29.93,10.0,South,20.7,-,N/A,,Clear,170,2012-12-13 07:15:00
1:35 AM,37.0,14.9,40,29.93,10.0,South,20.7,25.3,N/A,,Clear,170,2012-12-13 07:35:00
1:55 AM,36.5,15.1,42,29.93,10.0,South,18.4,-,N/A,,Clear,170,2012-12-13 07:55:00
2:15 AM,36.5,15.1,42,29.95,10.0,South,15.0,-,N/A,,Clear,170,2012-12-13 08:15:00
2:35 AM,35.8,15.4,44,29.95,10.0,South,13.8,-,N/A,,Clear,170,2012-12-13 08:35:00
2:55 AM,35.6,15.4,44,29.95,10.0,South,16.1,-,N/A,,Clear,170,2012-12-13 08:55:00
3:15 AM,35.1,15.6,45,29.95,10.0,South,16.1,-,N/A,,Clear,170,2012-12-13 09:15:00
3:35 AM,35.2,15.6,45,29.95,10.0,South,15.0,-,N/A,,Clear,170,2012-12-13 09:35:00
3:55 AM,35.2,15.8,45,29.95,10.0,South,15.0,-,N/A,,Clear,170,2012-12-13 09:55:00
4:15 AM,35.4,16.2,46,29.95,10.0,South,15.0,-,N/A,,Clear,170,2012-12-13 10:15:00
4:35 AM,35.1,16.5,47,29.95,10.0,South,16.1,-,N/A,,Clear,180,2012-12-13 10:35:00
4:55 AM,34.3,16.7,49,29.95,10.0,South,12.7,-,N/A,,Clear,180,2012-12-13 10:55:00
5:15 AM,33.8,16.7,50,29.95,10.0,South,13.8,-,N/A,,Clear,190,2012-12-13 11:15:00
5:35 AM,33.3,17.1,51,29.95,10.0,South,13.8,-,N/A,,Clear,190,2012-12-13 11:35:00
5:55 AM,33.3,17.4,52,29.96,10.0,South,12.7,-,N/A,,Clear,190,2012-12-13 11:55:00
6:15 AM,33.3,17.6,53,29.96,10.0,South,13.8,-,N/A,,Clear,190,2012-12-13 12:15:00
6:35 AM,32.9,17.8,54,29.96,10.0,South,12.7,-,N/A,,Clear,190,2012-12-13 12:35:00
6:55 AM,32.9,18.1,55,29.97,10.0,South,12.7,-,N/A,,Clear,190,2012-12-13 12:55:00
7:15 AM,32.2,18.1,56,29.97,10.0,South,9.2,-,N/A,,Clear,190,2012-12-13 13:15:00
7:35 AM,32.0,18.3,57,29.98,10.0,South,10.4,-,N/A,,Clear,190,2012-12-13 13:35:00
7:55 AM,32.4,18.5,57,29.98,10.0,South,9.2,-,N/A,,Clear,190,2012-12-13 13:55:00
8:15 AM,31.8,18.7,58,29.99,10.0,SSW,8.1,-,N/A,,Clear,200,2012-12-13 14:15:00
8:35 AM,33.8,19.4,56,29.99,10.0,South,9.2,-,N/A,,Clear,190,2012-12-13 14:35:00
8:55 AM,36.0,20.3,53,30.00,10.0,SSW,10.4,-,N/A,,Clear,200,2012-12-13 14:55:00
9:15 AM,37.6,20.5,50,30.01,10.0,SSW,9.2,-,N/A,,Clear,210,2012-12-13 15:15:00
9:35 AM,39.6,20.5,46,30.00,10.0,SSW,13.8,-,N/A,,Clear,210,2012-12-13 15:35:00
9:55 AM,40.5,20.5,45,30.01,10.0,SSW,12.7,17.3,N/A,,Clear,210,2012-12-13 15:55:00
10:15 AM,41.5,20.8,44,30.02,10.0,SSW,9.2,-,N/A,,Clear,200,2012-12-13 16:15:00
10:35 AM,42.4,21.0,43,30.02,10.0,SW,10.4,-,N/A,,Clear,220,2012-12-13 16:35:00
10:55 AM,43.7,21.0,41,30.03,10.0,SW,10.4,-,N/A,,Clear,230,2012-12-13 16:55:00
11:15 AM,45.1,21.2,39,30.02,10.0,SW,9.2,-,N/A,,Clear,220,2012-12-13 17:15:00
11:35 AM,46.4,20.8,36,30.02,10.0,SW,6.9,-,N/A,,Clear,230,2012-12-13 17:35:00
11:55 AM,47.5,21.0,35,30.02,10.0,SW,6.9,-,N/A,,Clear,220,2012-12-13 17:55:00
12:15 PM,48.6,21.4,34,30.03,10.0,WSW,6.9,-,N/A,,Clear,250,2012-12-13 18:15:00
12:35 PM,49.1,21.6,34,30.03,10.0,West,4.6,-,N/A,,Clear,270,2012-12-13 18:35:00
12:55 PM,50.0,21.9,33,30.01,10.0,WSW,4.6,-,N/A,,Clear,240,2012-12-13 18:55:00
1:15 PM,50.9,22.1,32,30.01,10.0,WSW,3.5,-,N/A,,Clear,240,2012-12-13 19:15:00
1:35 PM,51.3,22.1,32,30.00,10.0,WSW,3.5,-,N/A,,Clear,250,2012-12-13 19:35:00
1:55 PM,51.8,22.3,32,30.00,10.0,WSW,4.6,-,N/A,,Clear,250,2012-12-13 19:55:00
2:15 PM,51.3,22.5,32,30.01,10.0,WSW,3.5,-,N/A,,Clear,250,2012-12-13 20:15:00
2:35 PM,51.3,22.6,33,30.01,10.0,WNW,4.6,-,N/A,,Clear,300,2012-12-13 20:35:00
2:55 PM,50.5,22.8,34,30.01,10.0,WNW,3.5,-,N/A,,Clear,300,2012-12-13 20:55:00
3:15 PM,50.2,22.8,34,30.02,10.0,WNW,3.5,-,N/A,,Clear,300,2012-12-13 21:15:00
3:35 PM,50.7,23.0,34,30.02,10.0,NW,3.5,-,N/A,,Clear,310,2012-12-13 21:35:00
3:55 PM,50.4,22.8,34,30.03,10.0,Calm,Calm,-,N/A,,Clear,0,2012-12-13 21:55:00
4:15 PM,49.6,22.6,35,30.03,10.0,Calm,Calm,-,N/A,,Clear,0,2012-12-13 22:15:00
4:35 PM,48.6,22.5,36,30.03,10.0,Calm,Calm,-,N/A,,Clear,0,2012-12-13 22:35:00
7:15 PM,37.4,22.1,54,30.04,10.0,North,10.4,-,N/A,,Clear,10,2012-12-14 01:15:00
7:35 PM,36.7,22.1,56,30.04,10.0,NNE,11.5,-,N/A,,Clear,20,2012-12-14 01:35:00
7:55 PM,35.4,21.6,57,30.05,10.0,NNE,11.5,-,N/A,,Clear,20,2012-12-14 01:55:00
8:15 PM,35.1,21.2,57,30.05,10.0,North,11.5,-,N/A,,Clear,10,2012-12-14 02:15:00
8:35 PM,34.9,21.2,57,30.05,10.0,North,12.7,-,N/A,,Clear,10,2012-12-14 02:35:00
8:55 PM,34.2,21.2,59,30.05,10.0,North,12.7,-,N/A,,Clear,10,2012-12-14 02:55:00
9:15 PM,33.3,20.8,60,30.05,10.0,North,13.8,-,N/A,,Clear,10,2012-12-14 03:15:00
9:35 PM,32.4,20.7,62,30.06,10.0,North,12.7,-,N/A,,Clear,10,2012-12-14 03:35:00
9:55 PM,32.0,20.3,62,30.05,10.0,North,10.4,-,N/A,,Clear,10,2012-12-14 03:55:00
10:15 PM,31.3,20.3,64,30.06,10.0,North,11.5,-,N/A,,Clear,10,2012-12-14 04:15:00
10:35 PM,30.7,20.1,65,30.05,10.0,NNE,12.7,-,N/A,,Clear,20,2012-12-14 04:35:00
10:55 PM,30.0,20.1,67,30.04,10.0,NNE,12.7,-,N/A,,Clear,20,2012-12-14 04:55:00
11:15 PM,30.0,20.1,67,30.05,10.0,North,13.8,-,N/A,,Clear,10,2012-12-14 05:15:00
11:35 PM,29.3,19.9,68,30.04,10.0,NNE,11.5,-,N/A,,Clear,20,2012-12-14 05:35:00
11:55 PM,28.8,19.9,70,30.04,10.0,NNE,10.4,-,N/A,,Clear,20,2012-12-14 05:55:00